When you browse on this site, cookies collect data to enhance your experience and personalize the content and advertising you see.
Visit our Privacy Policy to learn more. By continuing to use the site, you agree to this use of cookies and data.
  • Em Portugal
  • Lista de países
  • Para 7 dias
  • Temperatura da água
  • Mapas de satélite
  • Mapa do tempo
  • Widgets de tempo
  • user-avatar
    Iniciar Sessão

    Previsão horária em Osaka

    Hoje, 16 Novembro, Sexta-feira

    Tempo Temperatura Precipitação Vento Pressão Humidade
    00:00 +12°C° 0 mm 1 m/s 767 mmHg 75%
    01:00 +12°C° 0 mm 1 m/s 767 mmHg 76%
    02:00 +11°C° 0 mm 1 m/s 767 mmHg 76%
    03:00 +11°C° 0 mm 1 m/s 767 mmHg 77%
    04:00 +11°C° 0 mm 1 m/s 767 mmHg 77%
    05:00 +11°C° 0 mm 1 m/s 767 mmHg 77%
    06:00 +11°C° 0 mm 1 m/s 767 mmHg 77%
    07:00 +12°C° 0 mm 1 m/s 767 mmHg 70%
    08:00 +14°C° 0 mm 1 m/s 767 mmHg 64%
    09:00 +15°C° 0 mm 1 m/s 766 mmHg 57%
    10:00 +18°C° 0 mm 1 m/s 766 mmHg 53%
    11:00 +19°C° 0 mm 1 m/s 766 mmHg 50%
    12:00 +20°C° 0 mm 1 m/s 765 mmHg 47%
    13:00 +19°C° 0 mm 2 m/s 765 mmHg 48%
    14:00 +19°C° 0 mm 2 m/s 765 mmHg 49%
    15:00 +18°C° 0 mm 2 m/s 764 mmHg 51%
    16:00 +19°C° 0 mm 1 m/s 764 mmHg 55%
    17:00 +18°C° 0 mm 1 m/s 764 mmHg 58%
    18:00 +16°C° 0 mm 1 m/s 764 mmHg 61%
    19:00 +16°C° 0 mm 1 m/s 764 mmHg 62%
    20:00 +15°C° 0 mm 1 m/s 764 mmHg 63%
    21:00 +14°C° 0 mm 0 m/s 764 mmHg 65%
    22:00 +14°C° 0 mm 0 m/s 764 mmHg 65%
    23:00 +14°C° 0 mm 0 m/s 764 mmHg 66%

    Amanhã, 17 Novembro, Sábado

    Tempo Temperatura Precipitação Vento Pressão Humidade
    00:00 +14°C° 0 mm 0 m/s 763 mmHg 67%
    01:00 +14°C° 0 mm 1 m/s 763 mmHg 68%
    02:00 +14°C° 0 mm 1 m/s 763 mmHg 69%
    03:00 +14°C° 0 mm 1 m/s 763 mmHg 70%
    04:00 +13°C° 0 mm 1 m/s 763 mmHg 70%
    05:00 +13°C° 0 mm 1 m/s 763 mmHg 71%
    06:00 +13°C° 0 mm 1 m/s 763 mmHg 71%
    07:00 +14°C° 0 mm 1 m/s 763 mmHg 67%
    08:00 +15°C° 0 mm 1 m/s 763 mmHg 62%
    09:00 +16°C° 0 mm 1 m/s 763 mmHg 58%
    10:00 +17°C° 0 mm 2 m/s 763 mmHg 56%
    11:00 +18°C° 0 mm 2 m/s 762 mmHg 54%
    12:00 +19°C° 0 mm 3 m/s 762 mmHg 52%
    13:00 +19°C° 0 mm 3 m/s 762 mmHg 53%
    14:00 +19°C° 0 mm 3 m/s 761 mmHg 55%
    15:00 +19°C° 0 mm 4 m/s 761 mmHg 57%
    16:00 +18°C° 0 mm 3 m/s 761 mmHg 63%
    17:00 +16°C° 0 mm 3 m/s 762 mmHg 69%
    18:00 +14°C° 0 mm 3 m/s 762 mmHg 75%
    19:00 +13°C° 0 mm 3 m/s 762 mmHg 76%
    20:00 +14°C° 0 mm 2 m/s 763 mmHg 78%
    21:00 +14°C° 0 mm 2 m/s 763 mmHg 80%
    22:00 +13°C° 0 mm 2 m/s 763 mmHg 81%
    23:00 +13°C° 0 mm 2 m/s 763 mmHg 81%

    Depois de amanhã, 18 Novembro, Domingo

    Tempo Temperatura Precipitação Vento Pressão Humidade
    00:00 +13°C° 0 mm 2 m/s 763 mmHg 82%
    01:00 +13°C° 0 mm 2 m/s 763 mmHg 82%
    02:00 +12°C° 0 mm 2 m/s 763 mmHg 83%
    03:00 +12°C° 0 mm 2 m/s 763 mmHg 83%
    04:00 +12°C° 0 mm 2 m/s 763 mmHg 83%
    05:00 +12°C° 0 mm 2 m/s 763 mmHg 82%
    06:00 +12°C° 0 mm 2 m/s 764 mmHg 82%
    07:00 +13°C° 0 mm 2 m/s 764 mmHg 76%
    08:00 +14°C° 0 mm 2 m/s 764 mmHg 69%
    09:00 +16°C° 0 mm 2 m/s 764 mmHg 63%
    10:00 +18°C° 0 mm 1 m/s 764 mmHg 56%
    11:00 +20°C° 0 mm 1 m/s 764 mmHg 48%
    12:00 +21°C° 0 mm 1 m/s 763 mmHg 41%
    13:00 +21°C° 0 mm 1 m/s 763 mmHg 40%
    14:00 +21°C° 0 mm 1 m/s 762 mmHg 39%
    15:00 +21°C° 0 mm 1 m/s 762 mmHg 39%
    16:00 +20°C° 0 mm 1 m/s 762 mmHg 43%
    17:00 +18°C° 0 mm 1 m/s 762 mmHg 48%
    18:00 +16°C° 0 mm 1 m/s 763 mmHg 52%
    19:00 +16°C° 0 mm 1 m/s 763 mmHg 55%
    20:00 +15°C° 0 mm 1 m/s 763 mmHg 57%
    21:00 +15°C° 0 mm 1 m/s 763 mmHg 60%
    22:00 +15°C° 0 mm 1 m/s 763 mmHg 62%
    23:00 +14°C° 0 mm 1 m/s 763 mmHg 64%

    19 Novembro, Segunda-feira

    Tempo Temperatura Precipitação Vento Pressão Humidade
    00:00 +14°C° 0 mm 1 m/s 763 mmHg 66%
    01:00 +14°C° 0 mm 1 m/s 763 mmHg 66%
    02:00 +14°C° 0 mm 1 m/s 763 mmHg 66%
    03:00 +14°C° 0 mm 1 m/s 763 mmHg 67%
    04:00 +14°C° 0.2 mm 1 m/s 763 mmHg 69%
    05:00 +14°C° 0.2 mm 1 m/s 763 mmHg 71%
    06:00 +14°C° 0.2 mm 1 m/s 763 mmHg 73%
    07:00 +14°C° 0.2 mm 1 m/s 763 mmHg 74%
    08:00 +15°C° 0.2 mm 1 m/s 764 mmHg 74%
    09:00 +15°C° 0.2 mm 2 m/s 764 mmHg 74%
    10:00 +15°C° 0.4 mm 2 m/s 763 mmHg 75%
    11:00 +15°C° 0.4 mm 2 m/s 763 mmHg 76%
    12:00 +14°C° 0.4 mm 3 m/s 763 mmHg 76%
    13:00 +14°C° 0.1 mm 3 m/s 762 mmHg 74%
    14:00 +14°C° 0.1 mm 3 m/s 762 mmHg 72%
    15:00 +14°C° 0.1 mm 3 m/s 762 mmHg 70%
    16:00 +14°C° 0 mm 3 m/s 762 mmHg 72%
    17:00 +13°C° 0 mm 3 m/s 763 mmHg 75%
    18:00 +12°C° 0 mm 3 m/s 763 mmHg 77%
    19:00 +12°C° 0 mm 3 m/s 763 mmHg 78%
    20:00 +12°C° 0 mm 3 m/s 764 mmHg 79%
    21:00 +12°C° 0 mm 3 m/s 764 mmHg 80%
    22:00 +11°C° 0 mm 3 m/s 764 mmHg 80%
    23:00 +11°C° 0 mm 3 m/s 764 mmHg 80%

    20 Novembro, Terça-feira

    Tempo Temperatura Precipitação Vento Pressão Humidade
    00:00 +11°C° 0 mm 3 m/s 764 mmHg 80%
    01:00 +10°C° 0 mm 3 m/s 764 mmHg 79%
    02:00 +10°C° 0 mm 3 m/s 765 mmHg 78%
    03:00 +10°C° 0 mm 3 m/s 765 mmHg 77%
    04:00 +9°C° 0 mm 2 m/s 765 mmHg 77%
    05:00 +9°C° 0 mm 2 m/s 765 mmHg 77%
    06:00 +9°C° 0 mm 2 m/s 765 mmHg 76%
    07:00 +10°C° 0 mm 2 m/s 766 mmHg 71%
    08:00 +12°C° 0 mm 2 m/s 766 mmHg 67%
    09:00 +13°C° 0 mm 2 m/s 766 mmHg 62%
    10:00 +14°C° 0 mm 2 m/s 766 mmHg 58%
    11:00 +15°C° 0 mm 2 m/s 766 mmHg 54%
    12:00 +16°C° 0 mm 2 m/s 765 mmHg 50%
    13:00 +16°C° 0 mm 2 m/s 765 mmHg 50%
    14:00 +16°C° 0 mm 2 m/s 765 mmHg 51%
    15:00 +16°C° 0 mm 1 m/s 765 mmHg 51%
    16:00 +15°C° 0 mm 1 m/s 765 mmHg 54%
    17:00 +14°C° 0 mm 1 m/s 766 mmHg 58%
    18:00 +13°C° 0 mm 1 m/s 766 mmHg 61%
    19:00 +13°C° 0 mm 1 m/s 766 mmHg 63%
    20:00 +13°C° 0 mm 1 m/s 767 mmHg 65%
    21:00 +12°C° 0 mm 1 m/s 767 mmHg 67%
    22:00 +12°C° 0 mm 1 m/s 767 mmHg 68%
    23:00 +11°C° 0 mm 1 m/s 766 mmHg 69%

    21 Novembro, Quarta-feira

    Tempo Temperatura Precipitação Vento Pressão Humidade
    00:00 +11°C° 0 mm 1 m/s 766 mmHg 70%
    01:00 +11°C° 0 mm 1 m/s 766 mmHg 71%
    02:00 +10°C° 0 mm 1 m/s 766 mmHg 71%
    03:00 +10°C° 0 mm 1 m/s 766 mmHg 71%
    04:00 +10°C° 0 mm 1 m/s 766 mmHg 70%
    05:00 +10°C° 0 mm 1 m/s 766 mmHg 70%
    06:00 +10°C° 0 mm 1 m/s 766 mmHg 70%
    07:00 +11°C° 0 mm 1 m/s 766 mmHg 64%
    08:00 +12°C° 0 mm 1 m/s 766 mmHg 58%
    09:00 +14°C° 0 mm 1 m/s 766 mmHg 53%
    10:00 +15°C° 0 mm 1 m/s 766 mmHg 48%
    11:00 +16°C° 0 mm 1 m/s 765 mmHg 43%
    12:00 +17°C° 0 mm 2 m/s 765 mmHg 38%
    13:00 +17°C° 0 mm 2 m/s 764 mmHg 37%
    14:00 +17°C° 0 mm 2 m/s 764 mmHg 36%
    15:00 +17°C° 0 mm 2 m/s 763 mmHg 35%
    16:00 +16°C° 0 mm 2 m/s 764 mmHg 39%
    17:00 +15°C° 0 mm 2 m/s 764 mmHg 44%
    18:00 +13°C° 0 mm 2 m/s 765 mmHg 48%
    19:00 +13°C° 0 mm 2 m/s 765 mmHg 50%
    20:00 +13°C° 0 mm 2 m/s 765 mmHg 51%
    21:00 +12°C° 0 mm 2 m/s 765 mmHg 53%
    22:00 +12°C° 0 mm 2 m/s 765 mmHg 57%
    23:00 +11°C° 0 mm 3 m/s 765 mmHg 61%
    Mostrar mais